Pittsfield, MA

11:26 AM EDT on August 17, 2019 (GMT -0400)
Pittsfield Municipal

Weather History for KPSF - June, 2019

Change the Weather History Date:

Sunday, June 2, 2019

  Actual Average Record
Temperature  
Mean Temperature 62 °F 60 °F  
Max Temperature 73 °F 71 °F 93 °F (1937)
Min Temperature 51 °F 49 °F 36 °F (1933)
Degree Days  
Heating Degree Days 2 6  
Month to date heating degree days 4 12  
Since 1 June heating degree days 4 12  
Since 1 July heating degree days 6909 7372  
Cooling Degree Days 0 1  
Month to date cooling degree days 0 2  
Year to date cooling degree days 6 15  
Since 1 June cooling degree days 0 2  
Growing Degree Days 12 (Base 50)    
Moisture  
Dew Point 56 °F    
Average Humidity 86    
Maximum Humidity 100    
Minimum Humidity 57    
Precipitation  
Precipitation 0.31 in 0.17 in 1.69 in (2001)
Month to date precipitation 0.47 0.34  
Year to date precipitation 18.19 17.38  
Sea Level Pressure  
Sea Level Pressure 29.69 in    
Wind  
Wind Speed 2 mph ()    
Max Wind Speed 21 mph    
Max Gust Speed 27 mph    
Visibility 5.1 miles    
Events Fog , Rain    
T = Trace of Precipitation, MM = Missing Value Source: Averaged Metar Reports

Daily Weather History Graph

Daily Weather History Graph

Search for Another Location

Airport or City:

Astronomy

Jun. 02, 2019 Rise Set
Actual Time 5:18 AM EDT 8:24 PM EDT
Civil Twilight 4:44 AM EDT 8:58 PM EDT
Nautical Twilight 4:00 AM EDT 9:42 PM EDT
Astronomical Twilight 3:09 AM EDT 10:34 PM EDT
Moon 4:58 AM EDT (6/2) 7:38 PM EDT (6/2)
Length of Visible Light 16h 14m
Length of Day
15h 05m
Waning Crescent, 1% of the Moon is Illuminated
Jun 2
Waning Crescent
Jun 3
New
Jun 10
First Quarter
Jun 17
Full
Jun 25
Last Quarter

Hourly Weather History & Observations

Time (EDT) Temp. Dew Point Humidity Pressure Visibility Wind Dir Wind Speed Gust Speed Precip Events Conditions
12:54 AM 59.0 °F 57.0 °F 93% 29.70 in 8.0 mi North 4.6 mph - N/A   Scattered Clouds
1:54 AM 59.0 °F 55.9 °F 90% 29.68 in 6.0 mi North 3.5 mph - N/A   Partly Cloudy
2:25 AM 57.9 °F 55.9 °F 93% 29.75 in 1.8 mi Calm Calm - N/A   Clear
2:38 AM 57.9 °F 55.9 °F 93% 29.74 in 1.5 mi Calm Calm - N/A   Partly Cloudy
2:48 AM 57.2 °F 55.4 °F 94% 29.74 in 1.5 mi Calm Calm - N/A   Mostly Cloudy
2:54 AM 57.9 °F 55.9 °F 93% 29.67 in 1.5 mi Calm Calm - N/A   Mostly Cloudy
3:02 AM 57.0 °F 55.9 °F 96% 29.74 in 0.5 mi Calm Calm - N/A Fog Fog
3:10 AM 57.9 °F 55.9 °F 93% 29.73 in 1.0 mi Calm Calm - N/A   Overcast
3:16 AM 55.9 °F 55.0 °F 97% 29.73 in 0.5 mi Calm Calm - N/A Fog Fog
3:30 AM 57.9 °F 55.9 °F 93% 29.72 in 0.8 mi Calm Calm - N/A   Overcast
3:51 AM 57.2 °F 55.4 °F 94% 29.72 in 0.8 mi Calm Calm - N/A   Mist
3:54 AM 57.0 °F 55.0 °F 93% 29.65 in 1.0 mi Calm Calm - N/A   Mist
4:11 AM 57.9 °F 55.9 °F 93% 29.72 in 3.0 mi Calm Calm - 0.00 in Rain Light Rain
4:26 AM 57.9 °F 55.9 °F 93% 29.72 in 4.0 mi Calm Calm - 0.00 in   Overcast
4:54 AM 57.9 °F 55.9 °F 93% 29.66 in 6.0 mi Calm Calm - 0.00 in   Overcast
5:26 AM 57.9 °F 55.9 °F 93% 29.72 in 4.0 mi Calm Calm - N/A   Mostly Cloudy
5:31 AM 57.0 °F 55.0 °F 93% 29.72 in 1.8 mi Calm Calm - N/A   Mostly Cloudy
5:46 AM 57.0 °F 55.0 °F 93% 29.72 in 0.8 mi Calm Calm - N/A   Mostly Cloudy
5:54 AM 55.9 °F 54.0 °F 93% 29.66 in 0.2 mi Calm Calm - N/A Fog Fog
6:04 AM 55.9 °F 54.0 °F 93% 29.72 in 0.2 mi Calm Calm - N/A Fog Fog
6:21 AM 57.0 °F 55.9 °F 96% 29.72 in 0.8 mi Calm Calm - N/A   Overcast
6:26 AM 57.0 °F 55.9 °F 96% 29.73 in 2.0 mi North 3.5 mph - N/A   Overcast
6:39 AM 57.9 °F 55.9 °F 93% 29.72 in 1.8 mi Calm Calm - N/A   Overcast
6:50 AM 57.2 °F 57.2 °F 100% 29.73 in 1.8 mi Calm Calm - N/A   Overcast
6:52 AM 57.2 °F 57.2 °F 100% 29.73 in 2.5 mi Calm Calm - N/A   Overcast
6:54 AM 57.9 °F 57.0 °F 97% 29.67 in 2.5 mi Calm Calm - N/A   Overcast
7:01 AM 59.0 °F 57.0 °F 93% 29.73 in 3.0 mi Calm Calm - N/A   Overcast
7:54 AM 61.0 °F 57.9 °F 90% 29.66 in 4.0 mi Calm Calm - N/A   Overcast
8:10 AM 61.0 °F 57.9 °F 90% 29.72 in 5.0 mi East 3.5 mph - N/A   Mostly Cloudy
8:54 AM 63.0 °F 57.9 °F 84% 29.66 in 8.0 mi SE 3.5 mph - N/A   Overcast
9:22 AM 64.0 °F 57.9 °F 80% 29.73 in 9.0 mi Calm Calm - N/A   Mostly Cloudy
9:54 AM 66.0 °F 57.9 °F 75% 29.67 in 10.0 mi South 3.5 mph - N/A   Mostly Cloudy
10:36 AM 69.1 °F 57.9 °F 68% 29.73 in 10.0 mi SW 6.9 mph - N/A   Scattered Clouds
10:54 AM 70.0 °F 57.9 °F 65% 29.67 in 10.0 mi Variable 4.6 mph - N/A   Partly Cloudy
11:54 AM 72.0 °F 57.0 °F 59% 29.65 in 10.0 mi West 6.9 mph - N/A   Partly Cloudy
12:54 PM 72.0 °F 55.9 °F 57% 29.63 in 10.0 mi South 8.1 mph - N/A   Mostly Cloudy
1:54 PM 72.0 °F 57.0 °F 59% 29.60 in 10.0 mi South 8.1 mph - N/A   Overcast
2:54 PM 63.0 °F 60.1 °F 90% 29.63 in 2.0 mi WNW 11.5 mph - 0.10 in Rain Heavy Rain
3:09 PM 64.9 °F 61.0 °F 87% 29.67 in 8.0 mi Calm Calm - 0.02 in Rain Light Rain
3:54 PM 69.1 °F 62.1 °F 78% 29.60 in 10.0 mi WSW 5.8 mph - 0.02 in   Mostly Cloudy
4:54 PM 70.0 °F 60.1 °F 71% 29.58 in 10.0 mi West 10.4 mph 17.3 mph N/A   Mostly Cloudy
5:54 PM 69.1 °F 60.1 °F 73% 29.58 in 10.0 mi WNW 8.1 mph - N/A   Overcast
6:54 PM 68.0 °F 60.1 °F 76% 29.58 in 10.0 mi West 5.8 mph - N/A   Overcast
7:09 PM 62.1 °F 55.9 °F 80% 29.66 in 1.8 mi Variable 6.9 mph - 0.12 in Rain Heavy Rain
7:19 PM 62.1 °F 55.9 °F 80% 29.66 in 3.0 mi WNW 8.1 mph - 0.14 in Rain Rain
7:54 PM 60.1 °F 55.9 °F 86% 29.64 in 8.0 mi West 8.1 mph - 0.17 in Rain Light Rain
8:15 PM 60.1 °F 55.0 °F 83% 29.71 in 5.0 mi WNW 10.4 mph 16.1 mph 0.02 in Rain Light Rain
8:36 PM 59.0 °F 54.0 °F 83% 29.72 in 10.0 mi Variable 6.9 mph - 0.02 in   Overcast
8:54 PM 57.9 °F 53.1 °F 84% 29.68 in 10.0 mi NW 10.4 mph 18.4 mph 0.02 in   Overcast
9:54 PM 55.9 °F 45.0 °F 67% 29.70 in 10.0 mi WNW 9.2 mph 17.3 mph N/A   Overcast
10:54 PM 55.0 °F 45.0 °F 69% 29.70 in 10.0 mi West 4.6 mph - N/A   Overcast
11:54 PM 54.0 °F 45.0 °F 72% 29.70 in 10.0 mi West 5.8 mph - N/A   Overcast